Quillayute, WA
on Monday, January 14, 2013

Monday
Previous Day Next Day
Daily Summary
 ActualAverageRecord
Temperature
Mean Temperature °F 42°F  
Max Temperature 39°F 47°F 58°F (1981)
Min Temperature 32°F 36°F 19°F (1997)
Degree Days
Heating Degree Days 29 23  
Month to date heating degree days 334  
Since 1 July heating degree days 2812  
Cooling Degree Days 0 0  
Month to date cooling degree days 0  
Year to date cooling degree days 0  
Moisture
Dew Point 35°F   
Average Humidity 97    
Maximum Humidity 100    
Minimum Humidity 87    
Precipitation
Precipitation 0.04 in 0.49 in 3.41 in (2010)
Month to date precipitation 6.75  
Year to date precipitation 6.75  
Wind
Wind Speed 1 mph   
Max Wind Speed 6 mph   
Max Gust Speed 7 mph   
Visibility 2 miles   
Events Fog   

Key: T is trace of precipitation, MM is missing value
Source: NWS Daily Summary
Time(PST)TemperatureDew PointHumidity Pressure Visibility Wind DirectionWind SpeedGust SpeedPrecipitationEvents Conditions
12:53 AM 33.1°F 32.0°F 96% 30.47 in 4.0 miles Calm Calm - N/A   Overcast
1:53 AM 32.0°F 32.0°F 100% 30.46 in 4.0 miles Calm Calm - N/A   Mostly Cloudy
2:53 AM 33.1°F 30.9°F 92% 30.48 in 5.0 miles ENE 4.6 mph - N/A   Overcast
3:14 AM 33.8°F 30.2°F 87% 30.46 in 5.0 miles East 3.5 mph - N/A   Overcast
3:36 AM 33.8°F 30.2°F 87% 30.47 in 5.0 miles Calm Calm - N/A   Overcast
3:53 AM 33.8°F 32.0°F 93% 30.47 in 5.0 miles Calm Calm - N/A   Overcast
4:53 AM 33.1°F 32.0°F 96% 30.46 in 4.0 miles Calm Calm - N/A   Overcast
5:35 AM 33.8°F 32.0°F 93% 30.46 in 5.0 miles Calm Calm - N/A   Overcast
5:53 AM 33.1°F 32.0°F 96% 30.47 in 4.0 miles Calm Calm - N/A   Overcast
6:53 AM 33.1°F 32.0°F 96% 30.46 in 5.0 miles Calm Calm - N/A   Overcast
7:53 AM 33.1°F 30.9°F 92% 30.47 in 4.0 miles East 3.5 mph - N/A   Overcast
8:10 AM 33.8°F 30.2°F 87% 30.47 in 2.5 miles SE 3.5 mph - N/A   Overcast
8:26 AM 33.8°F 32.0°F 93% 30.47 in 1.2 miles East 4.6 mph - N/A   Overcast
8:31 AM 33.8°F 32.0°F 93% 30.48 in 0.8 miles ESE 4.6 mph - N/A   Overcast
8:53 AM 33.1°F 33.1°F 100% 30.48 in 0.5 miles Calm Calm - N/A Fog Fog
9:00 AM 33.8°F 33.8°F 100% 30.48 in 0.5 miles Calm Calm - N/A Fog Fog
9:13 AM 33.8°F 33.8°F 100% 30.48 in 0.5 miles East 3.5 mph - N/A Fog Fog
9:33 AM 33.8°F 33.8°F 100% 30.48 in 0.5 miles Calm Calm - 0.01 in Fog Fog
9:53 AM 34.0°F 33.1°F 96% 30.49 in 0.5 miles Calm Calm - 0.01 in Fog Fog
10:53 AM 33.8°F 33.8°F 100% 30.48 in 0.8 miles Calm Calm - N/A   Overcast
11:07 AM 35.6°F 33.8°F 93% 30.47 in 0.8 miles Calm Calm - N/A   Overcast
11:19 AM 35.6°F 33.8°F 93% 30.47 in 0.5 miles Calm Calm - N/A Fog Fog
11:36 AM 35.6°F 35.6°F 100% 30.47 in 0.8 miles Calm Calm - N/A   Mist
11:53 AM 35.1°F 35.1°F 100% 30.47 in 0.8 miles Calm Calm - N/A   Mist
12:09 PM 35.6°F 35.6°F 100% 30.46 in 1.0 miles Calm Calm - N/A   Mist
12:24 PM 35.6°F 35.6°F 100% 30.46 in 0.8 miles Calm Calm - 0.01 in   Mist
12:44 PM 35.6°F 35.6°F 100% 30.46 in 1.0 miles Calm Calm - 0.01 in   Mist
12:53 PM 37.0°F 36.0°F 96% 30.47 in 1.2 miles Calm Calm - 0.01 in   Overcast
1:41 PM 37.4°F 37.4°F 100% 30.46 in 1.0 miles Calm Calm - N/A   Mist
1:45 PM 37.4°F 37.4°F 100% 30.46 in 0.8 miles East 3.5 mph - N/A   Mist
1:53 PM 37.4°F 37.4°F 100% 30.46 in 0.8 miles ENE 3.5 mph - N/A   Mist
2:05 PM 37.4°F 37.4°F 100% 30.47 in 1.2 miles Calm Calm - N/A   Overcast
2:12 PM 39.2°F 37.4°F 93% 30.47 in 2.0 miles Calm Calm - N/A   Overcast
2:25 PM 39.2°F 37.4°F 93% 30.47 in 3.0 miles Calm Calm - N/A   Overcast
2:53 PM 39.0°F 37.9°F 96% 30.48 in 4.0 miles Calm Calm - N/A   Overcast
3:53 PM 39.0°F 37.9°F 96% 30.48 in 4.0 miles Calm Calm - N/A   Overcast
4:18 PM 39.2°F 37.4°F 93% 30.48 in 2.5 miles Calm Calm - N/A   Overcast
4:26 PM 39.2°F 37.4°F 93% 30.48 in 3.0 miles Calm Calm - N/A   Overcast
4:31 PM 39.2°F 37.4°F 93% 30.48 in 3.0 miles Calm Calm - N/A   Overcast
4:44 PM 37.4°F 37.4°F 100% 30.48 in 2.0 miles Calm Calm - N/A   Overcast
4:53 PM 37.9°F 37.9°F 100% 30.49 in 2.0 miles Calm Calm - N/A   Overcast
4:58 PM 37.4°F 37.4°F 100% 30.48 in 1.0 miles Calm Calm - N/A   Overcast
5:05 PM 37.4°F 37.4°F 100% 30.49 in 0.5 miles Calm Calm - N/A Fog Fog
5:17 PM 37.4°F 35.6°F 93% 30.49 in 1.5 miles NE 3.5 mph - N/A   Overcast
5:22 PM 37.4°F 35.6°F 93% 30.49 in 3.0 miles Calm Calm - N/A   Overcast
5:45 PM 37.4°F 37.4°F 100% 30.50 in 2.0 miles Calm Calm - N/A   Overcast
5:53 PM 37.0°F 37.0°F 100% 30.51 in 3.0 miles North 3.5 mph - N/A   Overcast
6:14 PM 37.4°F 37.4°F 100% 30.50 in 3.0 miles Calm Calm - N/A   Overcast
6:21 PM 37.4°F 37.4°F 100% 30.50 in 2.5 miles Calm Calm - N/A   Overcast
6:39 PM 37.4°F 35.6°F 93% 30.51 in 1.8 miles Calm Calm - N/A   Overcast
6:50 PM 37.4°F 35.6°F 93% 30.51 in 2.0 miles Calm Calm - N/A   Overcast
6:53 PM 37.0°F 36.0°F 96% 30.52 in 2.0 miles Calm Calm - N/A   Overcast
7:07 PM 37.4°F 35.6°F 93% 30.52 in 4.0 miles Calm Calm - N/A   Overcast
7:33 PM 37.4°F 35.6°F 93% 30.52 in 2.5 miles Calm Calm - N/A   Overcast
7:42 PM 37.4°F 35.6°F 93% 30.52 in 1.8 miles Calm Calm - N/A   Overcast
7:47 PM 37.4°F 35.6°F 93% 30.52 in 3.0 miles Calm Calm - N/A   Overcast
7:53 PM 36.0°F 36.0°F 100% 30.53 in 3.0 miles Calm Calm - N/A   Overcast
8:10 PM 35.6°F 35.6°F 100% 30.52 in 3.0 miles Calm Calm - N/A   Overcast
8:19 PM 35.6°F 35.6°F 100% 30.52 in 2.5 miles Calm Calm - N/A   Overcast
8:26 PM 35.6°F 35.6°F 100% 30.52 in 1.2 miles Calm Calm - N/A   Overcast
8:35 PM 35.6°F 33.8°F 93% 30.52 in 0.2 miles Calm Calm - N/A Fog Fog
8:53 PM 34.0°F 34.0°F 100% 30.53 in 0.5 miles Calm Calm - N/A Fog Fog
9:13 PM 33.8°F 33.8°F 100% 30.53 in 0.2 miles Calm Calm - N/A Fog Fog
9:23 PM 33.8°F 33.8°F 100% 30.53 in 0.2 miles Calm Calm - N/A Fog Fog
9:53 PM 34.0°F 34.0°F 100% 30.54 in 0.2 miles Calm Calm - N/A Fog Fog
10:03 PM 33.8°F 33.8°F 100% 30.53 in 1.0 miles NE 3.5 mph - N/A   Overcast
10:08 PM 33.8°F 33.8°F 100% 30.53 in 2.0 miles NE 4.6 mph - N/A   Overcast
10:15 PM 33.8°F 33.8°F 100% 30.53 in 3.0 miles NE 5.8 mph - N/A   Overcast
10:20 PM 33.8°F 33.8°F 100% 30.53 in 1.8 miles NE 5.8 mph - N/A   Overcast
10:29 PM 33.8°F 33.8°F 100% 30.54 in 3.0 miles NE 3.5 mph - N/A   Overcast
10:53 PM 34.0°F 34.0°F 100% 30.55 in 1.8 miles Calm Calm - N/A   Overcast
11:03 PM 33.8°F 33.8°F 100% 30.54 in 0.8 miles Calm Calm - N/A   Overcast
11:24 PM 33.8°F 33.8°F 100% 30.54 in 0.2 miles Calm Calm - N/A Fog Fog
11:53 PM 34.0°F 34.0°F 100% 30.56 in 0.2 miles Calm Calm - N/A Fog Fog
Moon Phase
Jan. 14 Jan. 18 Jan. 26 Feb. 03 Feb. 10
Sunrise:08:03 AM (PST) Moon Rise:09:21 AM (PST)1/14
Sunset:04:52 PM (PST) Moon Set:09:04 PM (PST)1/14

Copyright © 2014 The Weather Underground, Inc.